This is the latest recevied weather packets stored in our database for station/object KG5TTF. If no packets are shown the sender has not sent any weather packets the latest 10 day(s).
| Time | Temp. | Humidity | Pressure | Rain* | Wind** | Luminosity | Snow |
|---|---|---|---|---|---|---|---|
| 1777395052 | 10° C | 51% | 1019.3 hPa | 0 mm | - | 744 W/m² | - |
| 1777394748 | 9.44° C | 56% | 1019.4 hPa | 0 mm | - | 732 W/m² | - |
| 1777394445 | 8.89° C | 55% | 1019.3 hPa | 0 mm | - | 721 W/m² | - |
| 1777394141 | 9.44° C | 55% | 1019.8 hPa | 0 mm | - | 709 W/m² | - |
| 1777393837 | 8.89° C | 58% | 1019.6 hPa | 0 mm | - | 694 W/m² | - |
| 1777393536 | 8.89° C | 62% | 1019.3 hPa | 0 mm | - | 679 W/m² | - |
| 1777393232 | 8.33° C | 60% | 1019.4 hPa | 0 mm | - | 666 W/m² | - |
| 1777392930 | 8.33° C | 63% | 1019.2 hPa | 0 mm | - | 651 W/m² | - |
| 1777392630 | 8.33° C | 65% | 1019.3 hPa | 0 mm | - | 637 W/m² | - |
| 1777392326 | 8.33° C | 67% | 1019.2 hPa | 0 mm | - | 617 W/m² | - |
| 1777392026 | 7.22° C | 68% | 1019.2 hPa | 0 mm | - | 604 W/m² | - |
| 1777391721 | 7.22° C | 71% | 1019.2 hPa | 0 mm | - | 588 W/m² | - |
| 1777391419 | 6.67° C | 72% | 1019.4 hPa | 0 mm | - | 574 W/m² | - |
| 1777391115 | 6.11° C | 76% | 1019.3 hPa | 0 mm | - | 557 W/m² | - |
| 1777390811 | 5.56° C | 79% | 1019.6 hPa | 0 mm | - | 538 W/m² | - |
| 1777390508 | 5.56° C | 82% | 1019.4 hPa | 0 mm | - | 530 W/m² | - |
| 1777390204 | 5° C | 83% | 1019.6 hPa | 0 mm | - | 556 W/m² | - |
| 1777389901 | 5° C | 86% | 1019.6 hPa | 0 mm | - | 585 W/m² | - |
| 1777389597 | 5° C | 89% | 1019.6 hPa | 0 mm | - | 584 W/m² | - |
| 1777389294 | 4.44° C | 94% | 1019.6 hPa | 0 mm | - | 564 W/m² | - |
| 1777388992 | 3.89° C | 95% | 1019.7 hPa | 0 mm | - | 201 W/m² | - |
| 1777388689 | 3.33° C | 96% | 1019.7 hPa | 0 mm | - | 478 W/m² | - |
| 1777388385 | 3.33° C | 97% | 1019.6 hPa | 0 mm | - | 271 W/m² | - |
| 1777388085 | 3.33° C | 97% | 1019.9 hPa | 0 mm | - | 246 W/m² | - |
| 1777387782 | 2.78° C | 97% | 1019.6 hPa | 0 mm | - | 286 W/m² | - |
* Rain latest hour (hover to see other rain measurements)
** Current wind speed in m/s (hover to see current wind gust speed)